Tracking 32954 objects as of 19-Jan-2026
HD Live streaming from Space Station
objects crossing your sky now

ARIANE 5 R/B

Track ARIANE 5 R/B now!


NORAD ID: 36746
Int'l Code: 2010-032C
Perigee: 264.1 km
Apogee: 31,909.7 km
Inclination: 1.7 °
Period: 558.2 minutes
Semi major axis: 22457 km
RCS: 22.3476 m2 (large)
Launch date: June 26, 2010
Source: France (FR)
Launch site: FRENCH GUIANA (FRGUI)

Note: This is a ROCKET BODY
Your satellite tracking list
Your tracking list is empty




NASA's NSSDC Master Catalog

Two Line Element Set (TLE):
1 36746U 10032C   26018.75927340  .00003092  00000-0  79733-3 0  9992
2 36746   1.7428  55.2805 7045527 193.5327 127.6953  2.57957496137632
Source of the keplerian elements: AFSPC